Date,TemperatureHighF,TemperatureAvgF,TemperatureLowF,DewpointHighF,DewpointAvgF,DewpointLowF,HumidityHigh,HumidityAvg,HumidityLow,PressureMaxIn,PressureMinIn,WindSpeedMaxMPH,WindSpeedAvgMPH,GustSpeedMaxMPH,PrecipitationSumIn
2013-3-1,29.3,26.0,22.7,23.1,19.6,16.5,83,77,70,30.21,30.06,12,4,16,0.00
2013-3-2,27.1,23.3,20.2,18.3,17.1,15.9,84,77,68,30.19,30.15,10,3,13,0.00
2013-3-3,29.8,20.9,12.9,19.8,14.5,9.5,92,77,59,30.16,30.08,7,2,9,0.00
2013-3-4,33.0,21.6,11.7,19.0,14.9,8.7,88,76,53,30.23,30.16,6,2,7,0.00
2013-3-5,32.2,25.3,16.5,26.3,20.4,12.8,88,82,72,30.23,29.99,13,3,18,0.00
2013-3-6,38.4,32.8,27.1,30.6,28.0,23.5,89,82,72,30.28,30.01,10,3,14,0.00
2013-3-7,35.9,31.1,25.9,30.1,24.3,18.2,94,76,56,30.48,30.27,10,2,12,0.00
2013-3-8,40.2,29.8,18.8,26.3,21.4,15.2,87,72,52,30.58,30.47,5,1,7,0.00
2013-3-9,44.9,34.7,25.5,33.3,28.5,23.1,92,79,57,30.47,30.09,12,4,14,0.01
2013-3-10,52.9,44.1,35.4,42.2,37.5,31.8,90,78,64,30.09,29.82,8,3,12,0.02
2013-3-11,53.3,46.9,37.0,48.4,42.5,33.1,95,85,68,29.82,29.48,16,5,22,0.35
2013-3-12,37.0,33.1,29.4,33.3,28.4,24.2,92,83,69,29.93,29.64,18,8,21,0.00
2013-3-13,33.5,28.1,22.8,24.9,19.3,14.4,95,70,48,30.25,29.91,20,6,21,0.00
2013-3-14,38.8,30.3,22.7,24.0,19.8,15.4,86,65,48,30.31,30.10,12,4,15,0.00
2013-3-15,41.1,34.7,30.9,33.0,28.7,20.8,84,78,65,30.10,29.91,14,5,20,0.00
2013-3-16,30.9,26.8,23.0,25.4,22.8,20.2,92,85,76,30.11,29.88,12,3,17,0.12
2013-3-17,26.3,22.4,19.3,21.7,13.9,7.7,89,70,52,30.40,30.11,10,3,14,0.00
2013-3-18,33.2,29.1,18.3,31.5,25.1,12.6,95,85,69,30.31,29.61,14,5,21,0.14
2013-3-19,33.7,25.2,22.1,31.3,20.0,16.1,92,80,71,29.94,29.60,23,10,29,0.00
2013-3-20,27.0,22.2,17.7,18.6,14.2,11.6,80,71,59,29.99,29.93,17,7,19,0.00
2013-3-21,31.6,23.9,16.8,23.1,18.2,11.7,92,79,65,29.97,29.89,13,6,16,0.00
2013-3-22,38.0,29.5,24.7,26.3,21.8,18.2,84,73,59,30.09,29.98,7,4,15,0.00
2013-3-23,37.2,31.6,28.7,26.6,24.6,22.4,83,75,65,30.18,30.09,4,2,12,0.00
2013-3-24,35.8,30.9,26.6,28.6,25.4,23.5,90,80,63,30.13,29.81,8,3,20,0.00
2013-3-25,41.1,36.8,31.7,31.7,29.1,25.6,84,73,65,30.00,29.75,18,5,22,0.00
2013-3-26,44.2,36.6,31.2,33.7,29.5,26.5,87,75,62,30.16,30.00,8,4,13,0.02
2013-3-27,41.0,33.3,30.9,30.2,26.4,24.7,80,76,61,30.20,30.15,11,5,17,0.00